﻿_id,trip_id,arrival_time,departure_time,stop_id,stop_sequence,pickup_type,drop_off_type
1,1026576-1035368,06:04:00,06:04:00,6860583,1,0,1
2,1026576-1035368,06:06:00,06:06:00,6860589,2,,
3,1026576-1035368,06:08:00,06:08:00,6860585,3,,
4,1026576-1035368,06:13:00,06:13:00,6860587,4,,
5,1026576-1035368,06:14:00,06:14:00,6860817,5,,
6,1026576-1035368,06:16:00,06:16:00,6860818,6,,
7,1026576-1035368,06:18:00,06:18:00,6860820,7,,
8,1026576-1035368,06:27:00,06:27:00,6864592A,8,1,0
9,1026576-1036089,09:52:00,09:52:00,6860583,1,0,1
10,1026576-1036089,09:54:00,09:54:00,6860589,2,,
11,1026576-1036089,09:56:00,09:56:00,6860585,3,,
12,1026576-1036089,10:01:00,10:01:00,6860587,4,,
13,1026576-1036089,10:02:00,10:02:00,6860817,5,,
14,1026576-1036089,10:04:00,10:04:00,6860818,6,,
15,1026576-1036089,10:06:00,10:06:00,6860820,7,,
16,1026576-1036089,10:15:00,10:15:00,6864592A,8,1,0
17,1026678-1035666,17:30:00,17:30:00,6860444,1,0,1
18,1026678-1035666,17:33:00,17:33:00,6861375,2,,
19,1026678-1035666,17:35:00,17:35:00,6861371,3,,
20,1026678-1035666,17:38:00,17:38:00,6861031,4,,
21,1026678-1035666,17:39:00,17:39:00,6861033,5,,
22,1026678-1035666,17:40:00,17:40:00,6862225,6,,
23,1026678-1035666,17:46:00,17:46:00,6861232,7,,
24,1026678-1035666,17:47:00,17:47:00,6861230,8,,
25,1026678-1035666,17:48:00,17:48:00,6861202,9,,
26,1026678-1035666,17:49:00,17:49:00,6861204,10,,
27,1026678-1035666,17:52:00,17:52:00,6860162,11,,
28,1026678-1035666,17:54:00,17:54:00,6861239,12,,
29,1026678-1035666,17:55:00,17:55:00,6861241,13,,
30,1026678-1035666,17:56:00,17:56:00,6861236,14,,
31,1026678-1035666,17:58:00,17:58:00,6861211,15,,
32,1026678-1035666,17:59:00,17:59:00,6861206,16,,
33,1026678-1035666,18:02:00,18:02:00,6861209,17,,
34,1026678-1035666,18:04:00,18:04:00,6862219,18,,
35,1026678-1035666,18:05:00,18:05:00,6861639,19,,
36,1026678-1035666,18:06:00,18:06:00,6861633,20,,
37,1026678-1035666,18:07:00,18:07:00,6862223,21,,
38,1026678-1035666,18:08:00,18:08:00,6862221,22,,
39,1026678-1035666,18:11:00,18:11:00,6808329A,23,,
40,1026678-1035666,18:13:00,18:13:00,6860335,24,,
41,1026678-1035666,18:15:00,18:15:00,6860317,25,,
42,1026678-1035666,18:21:00,18:21:00,6860311,26,,
43,1026678-1035666,18:22:00,18:22:00,6860323,27,,
44,1026678-1035666,18:25:00,18:25:00,6862155,28,,
45,1026678-1035666,18:28:00,18:28:00,6860362,29,1,0
46,1026678-1035667,18:45:00,18:45:00,6860444,1,0,1
47,1026678-1035667,18:48:00,18:48:00,6861375,2,,
48,1026678-1035667,18:50:00,18:50:00,6861371,3,,
49,1026678-1035667,18:53:00,18:53:00,6861031,4,,
50,1026678-1035667,18:54:00,18:54:00,6861033,5,,
51,1026678-1035667,18:55:00,18:55:00,6862225,6,,
52,1026678-1035667,19:01:00,19:01:00,6861232,7,,
53,1026678-1035667,19:02:00,19:02:00,6861230,8,,
54,1026678-1035667,19:03:00,19:03:00,6861202,9,,
55,1026678-1035667,19:04:00,19:04:00,6861204,10,,
56,1026678-1035667,19:07:00,19:07:00,6860162,11,,
57,1026678-1035667,19:09:00,19:09:00,6861239,12,,
58,1026678-1035667,19:10:00,19:10:00,6861241,13,,
59,1026678-1035667,19:11:00,19:11:00,6861236,14,,
60,1026678-1035667,19:13:00,19:13:00,6861211,15,,
61,1026678-1035667,19:14:00,19:14:00,6861206,16,,
62,1026678-1035667,19:17:00,19:17:00,6861209,17,,
63,1026678-1035667,19:19:00,19:19:00,6862219,18,,
64,1026678-1035667,19:20:00,19:20:00,6861639,19,,
65,1026678-1035667,19:21:00,19:21:00,6861633,20,,
66,1026678-1035667,19:22:00,19:22:00,6862223,21,,
67,1026678-1035667,19:23:00,19:23:00,6862221,22,,
68,1026678-1035667,19:26:00,19:26:00,6808329A,23,,
69,1026678-1035667,19:28:00,19:28:00,6860335,24,,
70,1026678-1035667,19:30:00,19:30:00,6860317,25,,
71,1026678-1035667,19:36:00,19:36:00,6860311,26,,
72,1026678-1035667,19:37:00,19:37:00,6860323,27,,
73,1026678-1035667,19:41:00,19:41:00,6862155,28,,
74,1026678-1035667,19:43:00,19:43:00,6860362,29,1,0
75,1026680-1035669,07:09:00,07:09:00,6861241,1,0,1
76,1026680-1035669,07:10:00,07:10:00,6861236,2,,
77,1026680-1035669,07:12:00,07:12:00,6861211,3,,
78,1026680-1035669,07:13:00,07:13:00,6861206,4,,
79,1026680-1035669,07:16:00,07:16:00,6861209,5,,
80,1026680-1035669,07:18:00,07:18:00,6862219,6,,
81,1026680-1035669,07:19:00,07:19:00,6861639,7,,
82,1026680-1035669,07:20:00,07:20:00,6861633,8,,
83,1026680-1035669,07:21:00,07:21:00,6862223,9,,
84,1026680-1035669,07:22:00,07:22:00,6862221,10,,
85,1026680-1035669,07:25:00,07:25:00,6808329A,11,,
86,1026680-1035669,07:27:00,07:27:00,6860335,12,,
87,1026680-1035669,07:29:00,07:29:00,6860317,13,,
88,1026680-1035669,07:34:00,07:34:00,6862153,14,,
89,1026680-1035669,07:41:00,07:41:00,6860344,15,1,0
90,1026681-1035670,08:09:00,08:09:00,6862219,1,0,1
91,1026681-1035670,08:10:00,08:10:00,6861639,2,,
92,1026681-1035670,08:11:00,08:11:00,6861633,3,,
93,1026681-1035670,08:12:00,08:12:00,6862223,4,,
94,1026681-1035670,08:13:00,08:13:00,6862221,5,,
95,1026681-1035670,08:26:00,08:26:00,6808329A,6,,
96,1026681-1035670,08:28:00,08:28:00,6860335,7,,
97,1026681-1035670,08:30:00,08:30:00,6860317,8,,
98,1026681-1035670,08:32:00,08:32:00,6860311,9,,
99,1026681-1035670,08:35:00,08:35:00,6860323,10,,
100,1026681-1035670,08:38:00,08:38:00,6862155,11,,
101,1026681-1035670,08:40:00,08:40:00,6860362,12,1,0
102,1026682-1035671,07:09:00,07:09:00,6861241,1,0,1
103,1026682-1035671,07:10:00,07:10:00,6861236,2,,
104,1026682-1035671,07:12:00,07:12:00,6861211,3,,
105,1026682-1035671,07:13:00,07:13:00,6861206,4,,
106,1026682-1035671,07:16:00,07:16:00,6861209,5,,
107,1026682-1035671,07:18:00,07:18:00,6862219,6,,
108,1026682-1035671,07:19:00,07:19:00,6861639,7,,
109,1026682-1035671,07:20:00,07:20:00,6861633,8,,
110,1026682-1035671,07:21:00,07:21:00,6862223,9,,
111,1026682-1035671,07:22:00,07:22:00,6862221,10,,
112,1026682-1035671,07:25:00,07:25:00,6808329A,11,,
113,1026682-1035671,07:27:00,07:27:00,6860335,12,,
114,1026682-1035671,07:29:00,07:29:00,6860317,13,,
115,1026682-1035671,07:33:00,07:33:00,6860311,14,,
116,1026682-1035671,07:36:00,07:36:00,6860323,15,,
117,1026682-1035671,07:43:00,07:43:00,6860344,16,,
118,1026682-1035671,07:48:00,07:48:00,6860339,17,,
119,1026682-1035671,07:52:00,07:52:00,6860342,18,1,0
120,1026683-1035672,06:35:00,06:35:00,6860444,1,0,1
121,1026683-1035672,06:38:00,06:38:00,6861375,2,,
122,1026683-1035672,06:40:00,06:40:00,6861371,3,,
123,1026683-1035672,06:43:00,06:43:00,6861031,4,,
124,1026683-1035672,06:44:00,06:44:00,6861033,5,,
125,1026683-1035672,06:45:00,06:45:00,6862225,6,,
126,1026683-1035672,06:50:00,06:50:00,6861232,7,,
127,1026683-1035672,06:51:00,06:51:00,6861230,8,,
128,1026683-1035672,06:52:00,06:52:00,6861202,9,,
129,1026683-1035672,06:53:00,06:53:00,6861204,10,,
130,1026683-1035672,06:56:00,06:56:00,6860162,11,,
131,1026683-1035672,06:59:00,06:59:00,6861239,12,,
132,1026683-1035672,07:00:00,07:00:00,6861241,13,,
133,1026683-1035672,07:01:00,07:01:00,6861236,14,,
134,1026683-1035672,07:03:00,07:03:00,6861211,15,,
135,1026683-1035672,07:04:00,07:04:00,6861206,16,,
136,1026683-1035672,07:07:00,07:07:00,6861209,17,,
137,1026683-1035672,07:09:00,07:09:00,6862219,18,,
138,1026683-1035672,07:10:00,07:10:00,6861639,19,,
139,1026683-1035672,07:11:00,07:11:00,6861633,20,,
140,1026683-1035672,07:12:00,07:12:00,6862223,21,,
141,1026683-1035672,07:13:00,07:13:00,6862221,22,,
142,1026683-1035672,07:26:00,07:26:00,6808329A,23,,
143,1026683-1035672,07:28:00,07:28:00,6860335,24,,
144,1026683-1035672,07:30:00,07:30:00,6860317,25,,
145,1026683-1035672,07:32:00,07:32:00,6860311,26,,
146,1026683-1035672,07:35:00,07:35:00,6860323,27,,
147,1026683-1035672,07:38:00,07:38:00,6862155,28,,
148,1026683-1035672,07:40:00,07:40:00,6860362,29,1,0
149,1027096-1036313,07:30:00,07:30:00,6860444,1,0,1
150,1027096-1036313,07:33:00,07:33:00,6862226,2,,
151,1027096-1036313,07:36:00,07:36:00,6861938,3,,
152,1027096-1036313,07:39:00,07:39:00,6860435,4,,
153,1027096-1036313,07:41:00,07:41:00,6860437,5,,
154,1027096-1036313,07:47:00,07:47:00,6861854,6,,
155,1027096-1036313,07:51:00,07:51:00,6861850,7,,
156,1027096-1036313,07:56:00,07:56:00,6861932,8,,
157,1027096-1036313,08:00:00,08:00:00,6861934,9,1,0
158,1027096-1036314,05:30:00,05:30:00,6860444,1,0,1
159,1027096-1036314,05:33:00,05:33:00,6862226,2,,
160,1027096-1036314,05:36:00,05:36:00,6861938,3,,
161,1027096-1036314,05:39:00,05:39:00,6860435,4,,
162,1027096-1036314,05:41:00,05:41:00,6860437,5,,
163,1027096-1036314,05:47:00,05:47:00,6861854,6,,
164,1027096-1036314,05:51:00,05:51:00,6861850,7,,
165,1027096-1036314,05:56:00,05:56:00,6861932,8,,
166,1027096-1036314,06:00:00,06:00:00,6861934,9,1,0
167,1027096-1036315,06:30:00,06:30:00,6860444,1,0,1
168,1027096-1036315,06:33:00,06:33:00,6862226,2,,
169,1027096-1036315,06:36:00,06:36:00,6861938,3,,
170,1027096-1036315,06:39:00,06:39:00,6860435,4,,
171,1027096-1036315,06:41:00,06:41:00,6860437,5,,
172,1027096-1036315,06:47:00,06:47:00,6861854,6,,
173,1027096-1036315,06:51:00,06:51:00,6861850,7,,
174,1027096-1036315,06:56:00,06:56:00,6861932,8,,
175,1027096-1036315,07:00:00,07:00:00,6861934,9,1,0
176,1027096-1036316,08:30:00,08:30:00,6860444,1,0,1
177,1027096-1036316,08:33:00,08:33:00,6862226,2,,
178,1027096-1036316,08:36:00,08:36:00,6861938,3,,
179,1027096-1036316,08:39:00,08:39:00,6860435,4,,
180,1027096-1036316,08:41:00,08:41:00,6860437,5,,
181,1027096-1036316,08:47:00,08:47:00,6861854,6,,
182,1027096-1036316,08:51:00,08:51:00,6861850,7,,
183,1027096-1036316,08:56:00,08:56:00,6861932,8,,
184,1027096-1036316,09:00:00,09:00:00,6861934,9,1,0
185,1026576-1036090,11:52:00,11:52:00,6860583,1,0,1
186,1026576-1036090,11:54:00,11:54:00,6860589,2,,
187,1026576-1036090,11:56:00,11:56:00,6860585,3,,
188,1026576-1036090,12:01:00,12:01:00,6860587,4,,
189,1026576-1036090,12:02:00,12:02:00,6860817,5,,
190,1026576-1036090,12:04:00,12:04:00,6860818,6,,
191,1026576-1036090,12:06:00,12:06:00,6860820,7,,
192,1026576-1036090,12:15:00,12:15:00,6864592A,8,1,0
193,1027096-1036317,10:30:00,10:30:00,6860444,1,0,1
194,1027096-1036317,10:33:00,10:33:00,6862226,2,,
195,1027096-1036317,10:36:00,10:36:00,6861938,3,,
196,1027096-1036317,10:39:00,10:39:00,6860435,4,,
197,1027096-1036317,10:41:00,10:41:00,6860437,5,,
198,1027096-1036317,10:47:00,10:47:00,6861854,6,,
199,1027096-1036317,10:51:00,10:51:00,6861850,7,,
200,1027096-1036317,10:56:00,10:56:00,6861932,8,,
201,1027096-1036317,11:00:00,11:00:00,6861934,9,1,0
202,1027096-1036318,11:30:00,11:30:00,6860444,1,0,1
203,1027096-1036318,11:33:00,11:33:00,6862226,2,,
204,1027096-1036318,11:36:00,11:36:00,6861938,3,,
205,1027096-1036318,11:39:00,11:39:00,6860435,4,,
206,1027096-1036318,11:41:00,11:41:00,6860437,5,,
207,1027096-1036318,11:47:00,11:47:00,6861854,6,,
208,1027096-1036318,11:51:00,11:51:00,6861850,7,,
209,1027096-1036318,11:56:00,11:56:00,6861932,8,,
210,1027096-1036318,12:00:00,12:00:00,6861934,9,1,0
211,1027096-1036319,12:30:00,12:30:00,6860444,1,0,1
212,1027096-1036319,12:33:00,12:33:00,6862226,2,,
213,1027096-1036319,12:36:00,12:36:00,6861938,3,,
214,1027096-1036319,12:39:00,12:39:00,6860435,4,,
215,1027096-1036319,12:41:00,12:41:00,6860437,5,,
216,1027096-1036319,12:47:00,12:47:00,6861854,6,,
217,1027096-1036319,12:51:00,12:51:00,6861850,7,,
218,1027096-1036319,12:56:00,12:56:00,6861932,8,,
219,1027096-1036319,13:00:00,13:00:00,6861934,9,1,0
220,1027096-1036320,13:30:00,13:30:00,6860444,1,0,1
221,1027096-1036320,13:33:00,13:33:00,6862226,2,,
222,1027096-1036320,13:36:00,13:36:00,6861938,3,,
223,1027096-1036320,13:39:00,13:39:00,6860435,4,,
224,1027096-1036320,13:41:00,13:41:00,6860437,5,,
225,1027096-1036320,13:47:00,13:47:00,6861854,6,,
226,1027096-1036320,13:51:00,13:51:00,6861850,7,,
227,1027096-1036320,13:56:00,13:56:00,6861932,8,,
228,1027096-1036320,14:00:00,14:00:00,6861934,9,1,0
229,1027096-1036321,17:40:00,17:40:00,6860444,1,0,1
230,1027096-1036321,17:43:00,17:43:00,6862226,2,,
231,1027096-1036321,17:46:00,17:46:00,6861938,3,,
232,1027096-1036321,17:49:00,17:49:00,6860435,4,,
233,1027096-1036321,17:51:00,17:51:00,6860437,5,,
234,1027096-1036321,17:57:00,17:57:00,6861854,6,,
235,1027096-1036321,18:01:00,18:01:00,6861850,7,,
236,1027096-1036321,18:06:00,18:06:00,6861932,8,,
237,1027096-1036321,18:10:00,18:10:00,6861934,9,1,0
238,1027096-1036322,18:40:00,18:40:00,6860444,1,0,1
239,1027096-1036322,18:43:00,18:43:00,6862226,2,,
240,1027096-1036322,18:46:00,18:46:00,6861938,3,,
241,1027096-1036322,18:49:00,18:49:00,6860435,4,,
242,1027096-1036322,18:51:00,18:51:00,6860437,5,,
243,1027096-1036322,18:57:00,18:57:00,6861854,6,,
244,1027096-1036322,19:01:00,19:01:00,6861850,7,,
245,1027096-1036322,19:06:00,19:06:00,6861932,8,,
246,1027096-1036322,19:10:00,19:10:00,6861934,9,1,0
247,1027096-1036323,19:40:00,19:40:00,6860444,1,0,1
248,1027096-1036323,19:43:00,19:43:00,6862226,2,,
249,1027096-1036323,19:46:00,19:46:00,6861938,3,,
250,1027096-1036323,19:49:00,19:49:00,6860435,4,,
251,1027096-1036323,19:51:00,19:51:00,6860437,5,,
252,1027096-1036323,19:57:00,19:57:00,6861854,6,,
253,1027096-1036323,20:01:00,20:01:00,6861850,7,,
254,1027096-1036323,20:06:00,20:06:00,6861932,8,,
255,1027096-1036323,20:10:00,20:10:00,6861934,9,1,0
256,1027096-1036324,14:30:00,14:30:00,6860444,1,0,1
257,1027096-1036324,14:33:00,14:33:00,6862226,2,,
258,1027096-1036324,14:36:00,14:36:00,6861938,3,,
259,1027096-1036324,14:39:00,14:39:00,6860435,4,,
260,1027096-1036324,14:41:00,14:41:00,6860437,5,,
261,1027096-1036324,14:47:00,14:47:00,6861854,6,,
262,1027096-1036324,14:51:00,14:51:00,6861850,7,,
263,1027096-1036324,14:56:00,14:56:00,6861932,8,,
264,1027096-1036324,15:00:00,15:00:00,6861934,9,1,0
265,1027096-1036325,16:00:00,16:00:00,6860444,1,0,1
266,1027096-1036325,16:03:00,16:03:00,6862226,2,,
267,1027096-1036325,16:06:00,16:06:00,6861938,3,,
268,1027096-1036325,16:09:00,16:09:00,6860435,4,,
269,1027096-1036325,16:11:00,16:11:00,6860437,5,,
270,1027096-1036325,16:17:00,16:17:00,6861854,6,,
271,1027096-1036325,16:21:00,16:21:00,6861850,7,,
272,1027096-1036325,16:26:00,16:26:00,6861932,8,,
273,1027096-1036325,16:30:00,16:30:00,6861934,9,1,0
274,1027096-1036326,17:00:00,17:00:00,6860444,1,0,1
275,1027096-1036326,17:03:00,17:03:00,6862226,2,,
276,1027096-1036326,17:06:00,17:06:00,6861938,3,,
277,1027096-1036326,17:09:00,17:09:00,6860435,4,,
278,1027096-1036326,17:11:00,17:11:00,6860437,5,,
279,1027096-1036326,17:17:00,17:17:00,6861854,6,,
280,1027096-1036326,17:21:00,17:21:00,6861850,7,,
281,1027096-1036326,17:26:00,17:26:00,6861932,8,,
282,1027096-1036326,17:30:00,17:30:00,6861934,9,1,0
283,1026576-1036091,12:52:00,12:52:00,6860583,1,0,1
284,1026576-1036091,12:54:00,12:54:00,6860589,2,,
285,1026576-1036091,12:56:00,12:56:00,6860585,3,,
286,1026576-1036091,13:01:00,13:01:00,6860587,4,,
287,1026576-1036091,13:02:00,13:02:00,6860817,5,,
288,1026576-1036091,13:04:00,13:04:00,6860818,6,,
289,1026576-1036091,13:06:00,13:06:00,6860820,7,,
290,1026576-1036091,13:15:00,13:15:00,6864592A,8,1,0
291,1008078-1009427,06:42:00,06:42:00,6862217,1,0,1
292,1008078-1009427,06:43:00,06:43:00,6862218,2,,
293,1008078-1009427,06:44:00,06:44:00,6861010,3,,
294,1008078-1009427,06:46:00,06:46:00,6860930,4,,
295,1008078-1009427,06:47:00,06:47:00,6860928,5,,
296,1008078-1009427,06:49:00,06:49:00,6861543,6,,
297,1008078-1009427,06:50:00,06:50:00,6861539,7,,
298,1008078-1009427,06:54:00,06:54:00,6860606,8,,
299,1008078-1009427,06:55:00,06:55:00,6860602,9,,
300,1008078-1009427,07:02:00,07:02:00,6861443,10,,
301,1008078-1009427,07:03:00,07:03:00,6861445,11,,
302,1008078-1009427,07:06:00,07:06:00,6860940,12,,
303,1008078-1009427,07:10:00,07:10:00,6861692,13,,
304,1008078-1009427,07:15:00,07:15:00,6861694,14,,
305,1008078-1009427,07:17:00,07:17:00,6861698,15,,
306,1008078-1009427,07:20:00,07:20:00,6861959,16,1,0
307,1008078-1009429,08:15:00,08:15:00,6862217,1,0,1
308,1008078-1009429,08:16:00,08:16:00,6862218,2,,
309,1008078-1009429,08:17:00,08:17:00,6861010,3,,
310,1008078-1009429,08:19:00,08:19:00,6860930,4,,
311,1008078-1009429,08:20:00,08:20:00,6860928,5,,
312,1008078-1009429,08:22:00,08:22:00,6861543,6,,
313,1008078-1009429,08:23:00,08:23:00,6861539,7,,
314,1008078-1009429,08:27:00,08:27:00,6860606,8,,
315,1008078-1009429,08:28:00,08:28:00,6860602,9,,
316,1008078-1009429,08:35:00,08:35:00,6861443,10,,
317,1008078-1009429,08:36:00,08:36:00,6861445,11,,
318,1008078-1009429,08:39:00,08:39:00,6860940,12,,
319,1008078-1009429,08:43:00,08:43:00,6861692,13,,
320,1008078-1009429,08:48:00,08:48:00,6861694,14,,
321,1008078-1009429,08:50:00,08:50:00,6861698,15,,
322,1008078-1009429,08:53:00,08:53:00,6861959,16,1,0
323,1008078-1009431,13:20:00,13:20:00,6862217,1,0,1
324,1008078-1009431,13:21:00,13:21:00,6862218,2,,
325,1008078-1009431,13:22:00,13:22:00,6861010,3,,
326,1008078-1009431,13:24:00,13:24:00,6860930,4,,
327,1008078-1009431,13:25:00,13:25:00,6860928,5,,
328,1008078-1009431,13:27:00,13:27:00,6861543,6,,
329,1008078-1009431,13:28:00,13:28:00,6861539,7,,
330,1008078-1009431,13:32:00,13:32:00,6860606,8,,
331,1008078-1009431,13:33:00,13:33:00,6860602,9,,
332,1008078-1009431,13:40:00,13:40:00,6861443,10,,
333,1008078-1009431,13:41:00,13:41:00,6861445,11,,
334,1008078-1009431,13:44:00,13:44:00,6860940,12,,
335,1008078-1009431,13:48:00,13:48:00,6861692,13,,
336,1008078-1009431,13:53:00,13:53:00,6861694,14,,
337,1008078-1009431,13:55:00,13:55:00,6861698,15,,
338,1008078-1009431,13:58:00,13:58:00,6861959,16,1,0
339,1026707-1035709,17:15:00,17:15:00,6861006,1,0,1
340,1026707-1035709,17:19:00,17:19:00,6862217,2,,
341,1026707-1035709,17:20:00,17:20:00,6862218,3,,
342,1026707-1035709,17:21:00,17:21:00,6861010,4,,
343,1026707-1035709,17:24:00,17:24:00,6860930,5,,
344,1026707-1035709,17:25:00,17:25:00,6860928,6,,
345,1026707-1035709,17:27:00,17:27:00,6861543,7,,
346,1026707-1035709,17:28:00,17:28:00,6861539,8,,
347,1026707-1035709,17:31:00,17:31:00,6860606,9,,
348,1026707-1035709,17:32:00,17:32:00,6860602,10,,
349,1026707-1035709,17:43:00,17:43:00,6861443,11,,
350,1026707-1035709,17:45:00,17:45:00,6861445,12,,
351,1026707-1035709,17:47:00,17:47:00,6860940,13,,
352,1026707-1035709,17:52:00,17:52:00,6861692,14,,
353,1026707-1035709,17:55:00,17:55:00,6861694,15,,
354,1026707-1035709,17:57:00,17:57:00,6861698,16,,
355,1026707-1035709,18:00:00,18:00:00,6861959,17,1,0
356,1026707-1035710,12:15:00,12:15:00,6861006,1,0,1
357,1026707-1035710,12:19:00,12:19:00,6862217,2,,
358,1026707-1035710,12:20:00,12:20:00,6862218,3,,
359,1026707-1035710,12:21:00,12:21:00,6861010,4,,
360,1026707-1035710,12:24:00,12:24:00,6860930,5,,
361,1026707-1035710,12:25:00,12:25:00,6860928,6,,
362,1026707-1035710,12:27:00,12:27:00,6861543,7,,
363,1026707-1035710,12:28:00,12:28:00,6861539,8,,
364,1026707-1035710,12:31:00,12:31:00,6860606,9,,
365,1026707-1035710,12:32:00,12:32:00,6860602,10,,
366,1026707-1035710,12:43:00,12:43:00,6861443,11,,
367,1026707-1035710,12:45:00,12:45:00,6861445,12,,
368,1026707-1035710,12:47:00,12:47:00,6860940,13,,
369,1026707-1035710,12:52:00,12:52:00,6861692,14,,
370,1026707-1035710,12:55:00,12:55:00,6861694,15,,
371,1026707-1035710,12:57:00,12:57:00,6861698,16,,
372,1026707-1035710,13:00:00,13:00:00,6861959,17,1,0
373,1007187-1008006,06:12:00,06:12:00,6862230,1,0,1
374,1007187-1008006,06:13:00,06:13:00,6861557,2,,
375,1007187-1008006,06:15:00,06:15:00,6862217,3,,
376,1007187-1008006,06:16:00,06:16:00,6862218,4,,
377,1007187-1008006,06:17:00,06:17:00,6861010,5,,
378,1007187-1008006,06:19:00,06:19:00,6860930,6,,
379,1007187-1008006,06:20:00,06:20:00,6860928,7,,
380,1007187-1008006,06:22:00,06:22:00,6861543,8,,
381,1007187-1008006,06:23:00,06:23:00,6861539,9,,
382,1007187-1008006,06:24:00,06:24:00,6861541,10,,
383,1007187-1008006,06:26:00,06:26:00,6860606,11,,
384,1007187-1008006,06:27:00,06:27:00,6860602,12,,
385,1007187-1008006,06:28:00,06:28:00,6860600,13,,
386,1007187-1008006,06:31:00,06:31:00,6861325,14,,
387,1007187-1008006,06:33:00,06:33:00,6860266,15,,
388,1007187-1008006,06:34:00,06:34:00,6860251,16,,
389,1007187-1008006,06:35:00,06:35:00,6860254,17,,
390,1007187-1008006,06:36:00,06:36:00,6860260,18,,
391,1007187-1008006,06:37:00,06:37:00,6860255,19,,
392,1007187-1008006,06:38:00,06:38:00,6860258,20,,
393,1007187-1008006,06:39:00,06:39:00,6860252,21,,
394,1007187-1008006,06:54:00,06:54:00,6861124,22,,
395,1007187-1008006,06:55:00,06:55:00,6862276,23,1,0
396,1007187-1009440,06:52:00,06:52:00,6862230,1,0,1
397,1007187-1009440,06:53:00,06:53:00,6861557,2,,
398,1007187-1009440,06:55:00,06:55:00,6862217,3,,
399,1007187-1009440,06:56:00,06:56:00,6862218,4,,
400,1007187-1009440,06:57:00,06:57:00,6861010,5,,
401,1007187-1009440,06:59:00,06:59:00,6860930,6,,
402,1007187-1009440,07:00:00,07:00:00,6860928,7,,
403,1007187-1009440,07:02:00,07:02:00,6861543,8,,
404,1007187-1009440,07:03:00,07:03:00,6861539,9,,
405,1007187-1009440,07:04:00,07:04:00,6861541,10,,
406,1007187-1009440,07:06:00,07:06:00,6860606,11,,
407,1007187-1009440,07:07:00,07:07:00,6860602,12,,
408,1007187-1009440,07:08:00,07:08:00,6860600,13,,
409,1007187-1009440,07:11:00,07:11:00,6861325,14,,
410,1007187-1009440,07:13:00,07:13:00,6860266,15,,
411,1007187-1009440,07:14:00,07:14:00,6860251,16,,
412,1007187-1009440,07:15:00,07:15:00,6860254,17,,
413,1007187-1009440,07:16:00,07:16:00,6860260,18,,
414,1007187-1009440,07:17:00,07:17:00,6860255,19,,
415,1007187-1009440,07:18:00,07:18:00,6860258,20,,
416,1007187-1009440,07:19:00,07:19:00,6860252,21,,
417,1007187-1009440,07:34:00,07:34:00,6861124,22,,
418,1007187-1009440,07:35:00,07:35:00,6862276,23,1,0
419,1007187-1009441,08:07:00,08:07:00,6862230,1,0,1
420,1007187-1009441,08:08:00,08:08:00,6861557,2,,
421,1007187-1009441,08:10:00,08:10:00,6862217,3,,
422,1007187-1009441,08:11:00,08:11:00,6862218,4,,
423,1007187-1009441,08:12:00,08:12:00,6861010,5,,
424,1007187-1009441,08:14:00,08:14:00,6860930,6,,
425,1007187-1009441,08:15:00,08:15:00,6860928,7,,
426,1007187-1009441,08:17:00,08:17:00,6861543,8,,
427,1007187-1009441,08:18:00,08:18:00,6861539,9,,
428,1007187-1009441,08:19:00,08:19:00,6861541,10,,
429,1007187-1009441,08:21:00,08:21:00,6860606,11,,
430,1007187-1009441,08:22:00,08:22:00,6860602,12,,
431,1007187-1009441,08:23:00,08:23:00,6860600,13,,
432,1007187-1009441,08:26:00,08:26:00,6861325,14,,
433,1007187-1009441,08:28:00,08:28:00,6860266,15,,
434,1007187-1009441,08:29:00,08:29:00,6860251,16,,
435,1007187-1009441,08:30:00,08:30:00,6860254,17,,
436,1007187-1009441,08:31:00,08:31:00,6860260,18,,
437,1007187-1009441,08:32:00,08:32:00,6860255,19,,
438,1007187-1009441,08:33:00,08:33:00,6860258,20,,
439,1007187-1009441,08:34:00,08:34:00,6860252,21,,
440,1007187-1009441,08:49:00,08:49:00,6861124,22,,
441,1007187-1009441,08:50:00,08:50:00,6862276,23,1,0
442,1007187-1009442,08:52:00,08:52:00,6862230,1,0,1
443,1007187-1009442,08:53:00,08:53:00,6861557,2,,
444,1007187-1009442,08:55:00,08:55:00,6862217,3,,
445,1007187-1009442,08:56:00,08:56:00,6862218,4,,
446,1007187-1009442,08:57:00,08:57:00,6861010,5,,
447,1007187-1009442,08:59:00,08:59:00,6860930,6,,
448,1007187-1009442,09:00:00,09:00:00,6860928,7,,
449,1007187-1009442,09:02:00,09:02:00,6861543,8,,
450,1007187-1009442,09:03:00,09:03:00,6861539,9,,
451,1007187-1009442,09:04:00,09:04:00,6861541,10,,
452,1007187-1009442,09:06:00,09:06:00,6860606,11,,
453,1007187-1009442,09:07:00,09:07:00,6860602,12,,
454,1007187-1009442,09:08:00,09:08:00,6860600,13,,
455,1007187-1009442,09:11:00,09:11:00,6861325,14,,
456,1007187-1009442,09:13:00,09:13:00,6860266,15,,
457,1007187-1009442,09:14:00,09:14:00,6860251,16,,
458,1007187-1009442,09:15:00,09:15:00,6860254,17,,
459,1007187-1009442,09:16:00,09:16:00,6860260,18,,
460,1007187-1009442,09:17:00,09:17:00,6860255,19,,
461,1007187-1009442,09:18:00,09:18:00,6860258,20,,
462,1007187-1009442,09:19:00,09:19:00,6860252,21,,
463,1007187-1009442,09:34:00,09:34:00,6861124,22,,
464,1007187-1009442,09:35:00,09:35:00,6862276,23,1,0
465,1007187-1009443,10:22:00,10:22:00,6862230,1,0,1
466,1007187-1009443,10:23:00,10:23:00,6861557,2,,
467,1007187-1009443,10:25:00,10:25:00,6862217,3,,
468,1007187-1009443,10:26:00,10:26:00,6862218,4,,
469,1007187-1009443,10:27:00,10:27:00,6861010,5,,
470,1007187-1009443,10:29:00,10:29:00,6860930,6,,
471,1007187-1009443,10:30:00,10:30:00,6860928,7,,
472,1007187-1009443,10:32:00,10:32:00,6861543,8,,
473,1007187-1009443,10:33:00,10:33:00,6861539,9,,
474,1007187-1009443,10:34:00,10:34:00,6861541,10,,